This is the latest recevied weather packets stored in our database for station/object OK2ARM-6. If no packets are shown the sender has not sent any weather packets the latest 10 day(s).
| Time | Temp. | Humidity | Pressure | Rain* | Wind** | Luminosity | Snow |
|---|---|---|---|---|---|---|---|
| 1777644406 | 23.89° C | 100% | 1026.6 hPa | - | - | - | - |
| 1777642606 | 22.78° C | 100% | 1026.7 hPa | - | - | - | - |
| 1777641406 | 24.44° C | 100% | 1026.9 hPa | - | - | - | - |
| 1777640206 | 23.89° C | 100% | 1027.1 hPa | - | - | - | - |
| 1777639606 | 23.89° C | 100% | 1027.2 hPa | - | - | - | - |
| 1777639006 | 22.78° C | 100% | 1027.3 hPa | - | - | - | - |
| 1777635863 | 20.56° C | - | 1027.7 hPa | - | - | - | - |
| 1777634519 | 22.78° C | 100% | 1027.6 hPa | - | - | - | - |
| 1777630776 | 17.78° C | 100% | 1028.5 hPa | - | - | - | - |
| 1777628832 | 17.78° C | 100% | 1028.7 hPa | - | - | - | - |
| 1777626745 | 15° C | 100% | 1028.8 hPa | - | - | - | - |
| 1777616257 | 8.33° C | 100% | 1029 hPa | - | - | - | - |
| 1777614457 | 6.11° C | 100% | 1028.9 hPa | - | - | - | - |
| 1777607570 | 3.33° C | 100% | 1028.8 hPa | - | - | - | - |
| 1777605770 | 2.78° C | 100% | 1028.6 hPa | - | - | - | - |
| 1777603226 | 2.78° C | 100% | 1028.6 hPa | - | - | - | - |
| 1777599026 | 1.67° C | 100% | 1029.2 hPa | - | - | - | - |
| 1777598425 | 1.67° C | 100% | 1029.2 hPa | - | - | - | - |
| 1777596025 | 0.56° C | 100% | 1029 hPa | - | - | - | - |
| 1777594081 | 0.56° C | 100% | 1029.1 hPa | - | - | - | - |
| 1777593480 | 0.56° C | 100% | 1029.1 hPa | - | - | - | - |
| 1777591080 | 1.11° C | 100% | 1029.2 hPa | - | - | - | - |
| 1777585681 | 2.78° C | 100% | 1029.1 hPa | - | - | - | - |
| 1777585081 | 2.78° C | 100% | 1029.1 hPa | - | - | - | - |
| 1777583137 | 4.44° C | 100% | 1029.1 hPa | - | - | - | - |
* Rain since midnight (hover to see other rain measurements)
** Current wind speed in m/s (hover to see current wind gust speed)